This demonstration page uses our WeatherBlox Daily Observations layout. Learn more.

Left ArrowRight Arrow

41.86663, -103.66717

Hourly Observations for August 10, 2021

Temp ( °F °C ) Dew Point ( °F °C ) Humidity (%) Winds ( mph kmh ) Pressure ( in mb ) Visibility ( mi km ) Precip ( " mm )
12:53 am 00:53 Clear 63 17.2 52 11.1 68 68 ESE 9 15 29.84 1010 10 16 N/A
1:53 am 01:53 Clear 63 17.2 52 11.1 68 68 E 3 6 29.83 1010 10 16 N/A
2:53 am 02:53 Clear 61 16.1 52 11.1 72 72 NNE 5 7 29.83 1010 10 16 N/A
3:53 am 03:53 Clear 60 15.6 50 10 70 70 NNE 12 19 29.85 1011 10 16 N/A
4:53 am 04:53 Clear 56 13.3 48 8.9 75 75 W 5 7 29.88 1012 10 16 N/A
5:53 am 05:53 Clear 53 11.7 49 9.4 86 86 NW 7 11 29.92 1013 10 16 N/A
6:53 am 06:53 Sunny 55 12.8 49 9.4 80 80 NW 8 13 29.95 1014 8 13 N/A
7:53 am 07:53 Sunny 59 15 50 10 72 72 NW 8 13 29.96 1015 10 16 N/A
8:53 am 08:53 Sunny 66 18.9 50 10 56 56 NW 7 11 29.96 1014 10 16 N/A
12:53 pm 12:53 Sunny 85 29.4 47 8.3 27 27 WNW 8 13 29.87 1012 10 16 N/A
1:53 pm 13:53 Sunny 89 31.7 39 3.9 17 17 NW 8 13 29.83 1010 10 16 N/A
2:53 pm 14:53 Sunny 92 33.3 37 2.8 14 14 W 8 13 29.80 1009 10 16 N/A
3:53 pm 15:53 Sunny 96 35.6 35 1.7 12 12 NNW 7 11 29.77 1008 10 16 N/A
4:53 pm 16:53 Sunny 97 36.1 21 -6.1 6 6 WNW 16 26 29.75 1008 10 16 N/A
5:53 pm 17:53 Sunny 96 35.6 25 -3.9 8 8 W 12 19 29.75 1007 10 16 N/A
6:53 pm 18:53 Sunny 94 34.4 36 2.2 13 13 N N/A 29.74 1007 10 16 N/A
7:53 pm 19:53 Sunny 84 28.9 36 2.2 18 18 WSW 6 9 29.75 1008 10 16 N/A
8:53 pm 20:53 Clear 71 21.7 41 5 34 34 N 8 13 29.79 1009 10 16 N/A
9:53 pm 21:53 Clear 65 18.3 44 6.7 47 47 W 3 6 29.80 1009 10 16 N/A
10:53 pm 22:53 Clear 62 16.7 38 3.3 41 41 N N/A 29.80 1009 10 16 N/A
11:53 pm 23:53 Clear 62 16.7 35 1.7 37 37 NNW 8 13 29.80 1009 10 16 N/A

Powered by AerisWeather